Location: Caltech
(34.1382°N, 118.1253°W)
Time: 10:27:09
(UTC-07:00)

TMSAT-1 - Visible Passes

Search period start: 31 July 2015 00:00
Search period end: 10 August 2015 00:00
Orbit: 808 x 813 km, 98.5° (Epoch: 31 July)

Date Brightness Start Highest point End Pass type
(mag) Time Alt. Az. Time Alt. Az. Time Alt. Az.
31 Jul 10.9 02:33:55 10° NE 02:37:57 23° E 02:38:08 23° E visible
31 Jul 9.8 04:13:09 10° N 04:18:00 37° WNW 04:19:17 32° WSW visible
01 Aug 11.5 02:12:01 10° ENE 02:14:09 13° E 02:14:16 13° E visible
01 Aug 9.1 03:49:21 10° N 03:54:35 63° WNW 03:55:25 55° WSW visible
02 Aug 9.0 03:25:49 10° NNE 03:31:07 77° E 03:31:34 72° SSE visible
02 Aug 11.1 05:08:39 10° NW 05:10:28 11° WNW 05:11:57 10° W visible
03 Aug 9.8 03:02:31 10° NNE 03:07:34 44° E 03:07:42 44° ESE visible
03 Aug 10.6 04:43:25 10° NNW 04:47:12 19° WNW 04:48:51 17° W visible
04 Aug 10.7 02:39:35 10° NE 02:43:50 26° E 02:43:50 26° E visible
04 Aug 10.0 04:19:10 10° N 04:23:52 32° WNW 04:24:59 29° W visible
05 Aug 11.4 02:17:19 10° ENE 02:19:58 15° E 02:19:58 15° E visible
05 Aug 9.2 03:55:18 10° N 04:00:28 54° WNW 04:01:07 51° W visible
06 Aug 8.9 03:31:41 10° NNE 03:37:01 88° E 03:37:15 82° S visible
07 Aug 9.6 03:08:20 10° NNE 03:13:23 51° E 03:13:23 51° E visible
07 Aug 10.7 04:49:37 10° NNW 04:53:03 17° WNW 04:54:32 15° W visible
08 Aug 10.6 02:45:17 10° NE 02:49:31 30° E 02:49:31 30° E visible
08 Aug 10.1 04:25:13 10° NNW 04:29:43 28° WNW 04:30:40 26° W visible
09 Aug 11.3 02:22:46 10° NE 02:25:39 17° E 02:25:39 17° E visible
09 Aug 9.4 04:01:16 10° N 04:06:20 47° WNW 04:06:48 46° W visible
